GW2298 Weather Reports


Display with metric or nautical units.
time (UTC)temp
F
wind
direction
speed
MPH
gust
MPH
rain 1hr
in
rain 24hr
in
rain mn
in
humidity
%
barometer
mb
20260505011405 64 172 3.0 3.0 0.00 0.00 0.00 38 4457.0
20260505010901 65 95 5.0 9.0 0.00 0.00 0.00 38 4457.0
20260505010357 65 351 4.0 5.0 0.00 0.00 0.00 37 4457.0
20260505005853 65 217 2.0 2.0 0.00 0.00 0.00 38 4457.0
20260505005350 65 79 3.0 5.0 0.00 0.00 0.00 37 4457.0
20260505004848 66 183 1.0 2.0 0.00 0.00 0.00 38 4457.0
20260505004344 66 275 2.0 2.0 0.00 0.00 0.00 37 4457.0
20260505003841 66 227 3.0 3.0 0.00 0.00 0.00 39 4457.0
20260505003338 65 215 4.0 5.0 0.00 0.00 0.00 37 4457.0
20260505002834 65 180 2.0 3.0 0.00 0.00 0.00 40 4457.0
20260505002331 66 73 3.0 5.0 0.00 0.00 0.00 38 4457.0
20260505001830 65 224 5.0 5.0 0.00 0.00 0.00 40 4457.0
20260505001326 65 167 4.0 5.0 0.00 0.00 0.00 40 4457.0
20260505000824 66 194 7.0 10.0 0.00 0.00 0.00 38 4457.3
20260505000321 66 220 5.0 10.0 0.00 0.00 0.00 40 4457.0
20260504235818 66 194 5.0 7.0 0.00 0.00 0.00 39 4457.0
20260504235315 67 186 3.0 5.0 0.00 0.00 0.00 38 4457.0
20260504234811 68 154 4.0 5.0 0.00 0.00 0.00 37 4456.6
20260504234309 68 116 3.0 5.0 0.00 0.00 0.00 37 4456.6
20260504233805 68 199 6.0 10.0 0.00 0.00 0.00 38 4457.0
20260504233301 68 280 5.0 7.0 0.00 0.00 0.00 38 4457.0
20260504232758 68 345 5.0 10.0 0.00 0.00 0.00 37 4456.6
20260504232255 68 60 4.0 5.0 0.00 0.00 0.00 37 4456.6
20260504231752 67 225 6.0 7.0 0.00 0.00 0.00 36 4457.0
20260504231248 67 136 4.0 5.0 0.00 0.00 0.00 38 4456.6
20260504230744 66 183 2.0 3.0 0.00 0.00 0.00 38 4456.6
20260504230243 66 153 2.0 3.0 0.00 0.00 0.00 37 4457.0
20260504225741 67 201 4.0 5.0 0.00 0.00 0.00 38 4456.6
20260504225237 67 168 3.0 3.0 0.00 0.00 0.00 36 4456.6
20260504224735 67 172 3.0 3.0 0.00 0.00 0.00 37 4456.6
20260504224232 68 332 3.0 5.0 0.00 0.00 0.00 35 4456.6
20260504223728 69 241 4.0 7.0 0.00 0.00 0.00 36 4456.6
20260504223223 69 231 2.0 3.0 0.00 0.00 0.00 32 4456.6
20260504222721 69 232 0.0 0.0 0.00 0.00 0.00 33 4456.6
20260504222218 69 343 2.0 3.0 0.00 0.00 0.00 34 4456.6
20260504221715 68 343 3.0 5.0 0.00 0.00 0.00 36 4456.6
20260504221212 68 321 2.0 3.0 0.00 0.00 0.00 34 4457.0
20260504220708 68 325 3.0 5.0 0.00 0.00 0.00 33 4456.6
20260504220206 68 195 1.0 2.0 0.00 0.00 0.00 34 4456.6
20260504215702 67 339 2.0 3.0 0.00 0.00 0.00 34 4456.6
20260504215200 66 12 5.0 5.0 0.00 0.00 0.00 33 4457.0
20260504214655 67 65 5.0 9.0 0.00 0.00 0.00 34 4457.0
20260504214152 67 30 3.0 3.0 0.00 0.00 0.00 35 4457.0
20260504213649 68 28 7.0 7.0 0.00 0.00 0.00 35 4456.6
20260504213145 67 317 3.0 5.0 0.00 0.00 0.00 32 4457.0
20260504212642 68 335 10.0 14.0 0.00 0.00 0.00 32 4457.0
20260504212138 67 46 6.0 7.0 0.00 0.00 0.00 34 4457.0
20260504211636 67 10 7.0 7.0 0.00 0.00 0.00 34 4457.0
20260504211132 67 44 6.0 9.0 0.00 0.00 0.00 32 4457.3
20260504210630 67 54 9.0 14.0 0.00 0.00 0.00 36 4457.0
20260504210126 67 127 5.0 9.0 0.00 0.00 0.00 33 4457.3
20260504205624 67 87 2.0 3.0 0.00 0.00 0.00 33 4457.3
20260504205121 67 129 2.0 5.0 0.00 0.00 0.00 34 4457.0
20260504204620 67 87 2.0 5.0 0.00 0.00 0.00 34 4457.0
20260504204118 66 21 8.0 9.0 0.00 0.00 0.00 32 4457.0
20260504203616 66 78 3.0 3.0 0.00 0.00 0.00 32 4457.0
20260504203114 67 103 0.0 2.0 0.00 0.00 0.00 34 4457.3
20260504202609 66 42 2.0 3.0 0.00 0.00 0.00 35 4457.3
20260504202106 66 37 3.0 3.0 0.00 0.00 0.00 35 4457.7
20260504201603 67 73 2.0 5.0 0.00 0.00 0.00 34 4457.3
20260504201101 66 81 0.0 0.0 0.00 0.00 0.00 32 4457.3
20260504200556 65 45 10.0 14.0 0.00 0.00 0.00 36 4457.7
20260504200054 66 357 8.0 10.0 0.00 0.00 0.00 35 4457.7
20260504195550 65 71 0.0 2.0 0.00 0.00 0.00 37 4457.3
20260504195046 65 55 9.0 12.0 0.00 0.00 0.00 36 4457.7
20260504194543 65 40 8.0 10.0 0.00 0.00 0.00 37 4457.3
20260504194038 64 51 4.0 5.0 0.00 0.00 0.00 36 4457.7
20260504193535 64 76 7.0 10.0 0.00 0.00 0.00 37 4458.1
20260504193034 64 26 5.0 7.0 0.00 0.00 0.00 37 4457.7
20260504192532 64 46 6.0 9.0 0.00 0.00 0.00 38 4457.7
20260504192030 64 32 8.0 12.0 0.00 0.00 0.00 39 4457.7
20260504191527 64 76 5.0 7.0 0.00 0.00 0.00 38 4458.1
20260504191023 63 44 4.0 5.0 0.00 0.00 0.00 38 4458.1
20260504190520 63 71 7.0 9.0 0.00 0.00 0.00 35 4458.1
20260504190015 63 45 11.0 14.0 0.00 0.00 0.00 35 4458.1
20260504185513 63 87 9.0 12.0 0.00 0.00 0.00 34 4458.1
20260504185009 63 51 12.0 14.0 0.00 0.00 0.00 36 4458.1
20260504184504 63 37 4.0 5.0 0.00 0.00 0.00 39 4458.1
20260504184000 62 74 5.0 7.0 0.00 0.00 0.00 36 4458.4
20260504183457 63 51 11.0 14.0 0.00 0.00 0.00 35 4458.1
20260504182955 63 39 7.0 10.0 0.00 0.00 0.00 38 4458.4
20260504182452 62 47 7.0 10.0 0.00 0.00 0.00 38 4458.4
20260504181949 62 83 7.0 12.0 0.00 0.00 0.00 37 4458.7
20260504181446 62 71 8.0 10.0 0.00 0.00 0.00 38 4458.4
20260504180944 62 59 6.0 10.0 0.00 0.00 0.00 39 4458.4
20260504180443 62 41 11.0 15.0 0.00 0.00 0.00 36 4458.7
20260504175941 62 16 4.0 5.0 0.00 0.00 0.00 39 4458.4
20260504175438 61 16 8.0 12.0 0.00 0.00 0.00 39 4458.4
20260504174936 62 49 16.0 19.0 0.00 0.00 0.00 37 4458.7
20260504174433 61 47 7.0 9.0 0.00 0.00 0.00 40 4458.7
20260504173930 61 50 13.0 15.0 0.00 0.00 0.00 37 4458.7
20260504173426 61 55 9.0 10.0 0.00 0.00 0.00 38 4458.7
20260504172924 60 32 9.0 10.0 0.00 0.00 0.00 38 4458.7
20260504172420 61 48 14.0 17.0 0.00 0.00 0.00 37 4458.7
20260504171916 60 26 11.0 15.0 0.00 0.00 0.00 39 4458.7
20260504171414 60 47 11.0 14.0 0.00 0.00 0.00 37 4458.7
20260504170911 59 49 8.0 10.0 0.00 0.00 0.00 38 4459.2
20260504170407 59 51 13.0 19.0 0.00 0.00 0.00 39 4459.2
20260504160326 57 51 11.0 14.0 0.00 0.00 0.00 42 4459.5
20260504150750 56 23 3.0 7.0 0.00 0.00 0.00 49 4459.5
20260504150247 56 337 3.0 3.0 0.00 0.00 0.00 47 4459.9
20260504141217 47 172 1.0 2.0 0.00 0.00 0.00 76 4459.5
20260504140714 46 172 1.0 2.0 0.00 0.00 0.00 76 4459.5
20260504140209 45 172 0.0 0.0 0.00 0.00 0.00 75 4459.5
20260504130637 39 197 3.0 3.0 0.00 0.00 0.00 89 4458.4
20260504130134 39 197 0.0 0.0 0.00 0.00 0.00 89 4458.7
20260504110525 39 214 0.0 0.0 0.00 0.00 0.00 84 4458.1
20260504100442 41 214 0.0 0.0 0.00 0.00 0.00 84 4457.0
20260504081835 46 213 0.0 0.0 0.00 0.00 0.00 75 4456.6
20260504081332 46 213 0.0 0.0 0.00 0.00 0.00 76 4456.6
20260504080827 47 213 0.0 0.0 0.00 0.00 0.00 73 4456.6
20260504080325 47 214 0.0 0.0 0.00 0.00 0.00 73 4456.6
20260504070252 49 214 0.0 0.0 0.00 0.00 0.00 67 4456.3
20260504060213 50 243 0.0 0.0 0.00 0.00 0.00 65 4456.3
20260504050640 51 243 0.0 0.0 0.00 0.00 0.00 65 4456.3
20260504050137 51 243 2.0 2.0 0.00 0.00 0.00 67 4455.8
20260504045635 52 243 0.0 2.0 0.00 0.00 0.00 67 4456.3
20260504045134 53 243 0.0 0.0 0.00 0.00 0.00 72 4455.8
20260504044632 53 243 0.0 0.0 0.00 0.00 0.00 65 4455.8
20260504044129 53 243 0.0 0.0 0.00 0.00 0.00 61 4456.3
20260504043626 54 243 0.0 0.0 0.00 0.00 0.00 63 4456.3
20260504043123 55 243 1.0 2.0 0.00 0.00 0.00 59 4455.8
20260504042621 56 261 2.0 2.0 0.00 0.00 0.00 57 4455.8
20260504042117 56 265 2.0 2.0 0.00 0.00 0.00 56 4455.8
20260504041613 55 265 0.0 0.0 0.00 0.00 0.00 58 4456.3
20260504041109 54 265 1.0 2.0 0.00 0.00 0.00 61 4455.8
20260504040607 54 265 0.0 2.0 0.00 0.00 0.00 62 4455.5
20260504040103 54 265 1.0 2.0 0.00 0.00 0.00 59 4455.8
20260504035600 55 265 0.0 0.0 0.00 0.00 0.00 59 4455.5
20260504035056 56 266 0.0 0.0 0.00 0.00 0.00 56 4455.5
20260504034554 58 265 0.0 2.0 0.00 0.00 0.00 53 4455.5
20260504034051 59 265 2.0 2.0 0.00 0.00 0.00 50 4455.2
20260504033549 59 265 0.0 0.0 0.00 0.00 0.00 49 4455.5
20260504033046 59 265 0.0 2.0 0.00 0.00 0.00 50 4455.2
20260504032543 59 266 0.0 0.0 0.00 0.00 0.00 52 4455.2
20260504032040 59 266 0.0 2.0 0.00 0.00 0.00 47 4455.2
20260504031537 59 241 1.0 2.0 0.00 0.00 0.00 49 4455.2
20260504031033 60 239 0.0 2.0 0.00 0.00 0.00 48 4454.8
20260504030531 61 239 0.0 0.0 0.00 0.00 0.00 48 4455.2
20260504030026 61 239 0.0 0.0 0.00 0.00 0.00 47 4455.2
20260504025524 62 239 0.0 0.0 0.00 0.00 0.00 47 4454.8
20260504025020 63 255 0.0 0.0 0.00 0.00 0.00 47 4454.8
20260504024517 64 257 0.0 2.0 0.00 0.00 0.00 43 4454.8
20260504024014 65 232 0.0 2.0 0.00 0.00 0.00 46 4454.8
20260504023511 66 232 0.0 0.0 0.00 0.00 0.00 41 4454.8
20260504023007 68 232 0.0 0.0 0.00 0.00 0.00 39 4455.2
20260504022503 69 232 0.0 0.0 0.00 0.00 0.00 38 4454.8
20260504021959 70 232 2.0 3.0 0.00 0.00 0.00 33 4454.8
20260504021457 71 232 1.0 2.0 0.00 0.00 0.00 33 4454.8
20260504020954 72 232 3.0 3.0 0.00 0.00 0.00 30 4454.4
20260504020450 72 220 3.0 3.0 0.00 0.00 0.00 28 4454.4
20260504015947 72 188 2.0 2.0 0.00 0.00 0.00 27 4454.4
20260504015443 73 189 1.0 2.0 0.00 0.00 0.00 26 4454.4
20260504014939 73 184 6.0 7.0 0.00 0.00 0.00 24 4454.4
20260504014435 74 207 1.0 2.0 0.00 0.00 0.00 26 4454.8
20260504013932 74 175 3.0 3.0 0.00 0.00 0.00 23 4454.4
20260504013431 75 203 3.0 3.0 0.00 0.00 0.00 25 4454.4
20260504012927 75 167 2.0 3.0 0.00 0.00 0.00 23 4454.4
20260504012425 75 221 3.0 5.0 0.00 0.00 0.00 23 4454.8
20260504011922 75 220 3.0 3.0 0.00 0.00 0.00 24 4454.4